Cloud_Cover
95 92 100 100 100 88 23 6 4 0 1 0 4 0 0 0 0 0 0 0 0 0 0 0 0 0 0 0 0 0 0 0
33 5 16 41 100 87 100 100 100 72 0 62 3 1 0 0 0 0 0 0 0 0 0 0 0 0 0 0 0 0 0 0
73 69 5 62 35 28 5 98 100 100 100 6 4 100 100 3 28 3 0 0 0 0 0 0 0 0 0 0 0 0 0 0
4 22 53 5 5 26 5 45 100 100 100 7 67 32 5 84 100 100 98 1 0 0 0 0 0 0 0 0 0 0 0 0
0 0 22 99 45 5 76 15 92 95 100 92 13 25 94 14 5 85 100 100 33 0 0 0 0 0 0 0 0 0 0 0
0 0 0 0 37 100 7 65 77 36 86 99 0 4 5 60 96 80 5 57 100 82 0 0 0 0 0 0 0 0 0 0
0 0 0 0 0 6 43 37 17 100 87 53 5 0 46 100 77 36 5 7 17 100 30 0 2 1 0 0 0 0 0 0
0 0 0 0 0 0 0 44 6 100 100 100 88 0 3 49 100 100 35 9 5 5 16 99 100 100 37 54 2 0 0 0
0 0 0 0 0 0 0 0 10 10 5 98 100 100 46 28 98 10 17 5 99 43 5 65 6 70 35 76 100 20 49 6
0 0 0 0 0 0 0 0 0 0 2 5 21 78 100 100 83 5 100 100 100 100 49 5 15 97 8 26 93 100 100 78
0 0 0 0 0 0 0 0 0 0 0 0 4 99 25 100 100 100 100 100 100 100 100 100 100 100 100 92 40 40 100 98
0 0 0 0 0 0 0 0 0 0 0 0 0 1 97 95 48 100 100 99 100 100 77 99 100 100 97 50 100 92 100 98
4 0 0 0 0 0 0 0 0 0 0 0 0 0 0 1 2 3 5 5 5 15 84 100 100 100 100 100 100 100 56 87
10 0 0 0 0 0 0 0 0 0 0 0 0 0 0 0 0 0 0 0 4 5 5 5 36 71 89 100 97 96 100 97
4 3 23 0 0 0 0 0 0 0 0 0 0 0 0 0 0 0 0 0 0 3 5 5 5 5 77 100 100 100 100 99
2 1 29 6 0 0 0 0 0 0 0 0 0 0 0 0 0 0 0 0 1 31 29 69 28 49 76 100 39 50 62 93
0 16 71 5 13 0 0 0 0 0 0 0 0 0 0 0 0 0 0 24 12 100 92 94 100 100 100 100 100 100 96 94
0 3 10 9 1 0 0 0 0 0 0 0 0 1 19 85 61 87 89 99 43 86 99 100 100 100 100 100 98 80 76 5
24 5 4 5 5 0 0 0 0 0 0 0 0 6 36 80 99 100 100 100 100 100 100 100 100 100 90 35 81 54 53 93